Location: Strawberry
(45.6646°N, 111.9596°W)
Time: 16:37:48
(UTC+00:00)

SR - Pass Details

Date: 07 October 2022
Orbit: 577 x 874 km, 66.7° (Epoch: 05 December)

Event Time Altitude Azimuth Distance (km) Brightness Sun altitude
Rises 04:57:29 0° 251° (WSW) 3,456 ? -39.9°
Reaches altitude 10° 05:00:23 10° 264° (W) 2,527 ? -40.3°
Enters shadow 05:03:17 22° 289° (WNW) 1,820 ? -40.6°
